Weather in Dunlap

United States     36°45′55″N   119°05′52″W
temp.,
°C
wind,
m/s
gust,
m/s
humid.,
%
clouds,
%
prec.,
mm/h
press.,
hPa
HPBL,
m
16 may, sun
sun1623:00+9ene32545 0.0 101132
02:00+8ene325772 0.0 101125
05:00+7ene2258100 0.0 101223
08:00+13wsw114710 0.0 1012530
11:00+15wsw424834 0.0 10121271
14:00+13w226799 1.4 1013870
17:00+15wnw225699 1.8 10121277
20:00+11ne227013 0.0 101317
17 may, mon
mon1723:00+10ene32795 0.4 101432
02:00+9ene32761 0.0 101434
05:00+8ene32762 0.0 101534
08:00+15wsw11540 0.0 1014475
11:00+19wsw42433 0.0 10141147
14:00+21wsw43385 0.0 10131633
17:00+21w333818 0.1 10121732
20:00+15nnw115416 0.1 101411
18 may, tue
tue1823:00+13ene32684 0.1 101532
02:00+12ene326934 0.0 101532
05:00+11ene32705 0.0 101629
08:00+16wsw21490 0.0 1015455
11:00+20wsw42350 0.0 10151086
14:00+23wsw43270 0.0 10131407
17:00+22w33240 0.0 10121482
20:00+14ne11350 0.0 101311
19 may, wed
wed1923:00+12ene32446 0.0 101429
02:00+11ene324612 0.0 101429
05:00+10e22455 0.0 101318
08:00+15wsw21340 0.0 1013457
11:00+18wsw42270 0.0 1011898
14:00+19wsw43210 0.0 10101298
17:00+19wsw32190 0.0 10091441
20:00+10nw01340 0.0 101010
20 may, thu
thu2023:00+9ene32360 0.0 101131
02:00+7e22390 0.0 101218
05:00+4se22470 0.0 101317
08:00+7wsw22450 0.0 1013444
11:00+11wsw43350 0.0 10121147
14:00+13wsw43200 0.0 10101744
17:00+12wsw44180 0.0 10092033
20:00+4nw113314 0.0 101110